GW3504 Weather Reports


Display with metric or nautical units.
time (UTC)temp
F
wind
direction
speed
MPH
gust
MPH
rain 1hr
in
rain 24hr
in
rain mn
in
humidity
%
barometer
mb
20260906205524 98 136 2.0 7.0 0.00 0.00 0.00 41 1013.0
20260906205028 98 0 1.0 8.0 0.00 0.00 0.00 39 1013.0
20260906204551 98 185 2.0 8.0 0.00 0.00 0.00 41 1013.2
20260906204024 98 192 3.0 8.0 0.00 0.00 0.00 41 1013.3
20260906203523 97 94 1.0 5.0 0.00 0.00 0.00 41 1013.4
20260906203046 97 46 1.0 5.0 0.00 0.00 0.00 42 1013.4
20260906202524 97 154 1.0 5.0 0.00 0.00 0.00 41 1013.5
20260906202024 97 0 0.0 6.0 0.00 0.00 0.00 42 1013.6
20260906201546 97 59 2.0 6.0 0.00 0.00 0.00 41 1013.7
20260906201026 97 146 2.0 6.0 0.00 0.00 0.00 42 1013.8
20260906200523 97 106 0.0 6.0 0.00 0.00 0.00 42 1013.9
20260906200042 97 154 2.0 7.0 0.00 0.00 0.00 42 1014.0
20260906195524 97 109 2.0 7.0 0.00 0.00 0.00 44 1014.1
20260906195023 97 0 3.0 7.0 0.00 0.00 0.00 43 1014.1
20260906194549 97 146 2.0 6.0 0.00 0.00 0.00 44 1014.1
20260906194023 96 170 1.0 6.0 0.00 0.00 0.00 44 1014.1
20260906193525 96 106 1.0 8.0 0.00 0.00 0.00 46 1014.1
20260906193041 97 178 3.0 8.0 0.00 0.00 0.00 45 1014.2
20260906192524 97 0 0.0 6.0 0.00 0.00 0.00 46 1014.3
20260906192025 97 0 1.0 6.0 0.00 0.00 0.00 46 1014.2
20260906191550 97 153 1.0 6.0 0.00 0.00 0.00 45 1014.3
20260906191026 97 128 2.0 6.0 0.00 0.00 0.00 44 1014.3
20260906190525 98 0 0.0 7.0 0.00 0.00 0.00 45 1014.4
20260906190051 97 142 0.0 7.0 0.00 0.00 0.00 46 1014.4
20260906185525 97 127 2.0 7.0 0.00 0.00 0.00 46 1014.6
20260906185025 97 148 0.0 6.0 0.00 0.00 0.00 47 1014.6
20260906184556 96 126 1.0 10.0 0.00 0.00 0.00 48 1014.8
20260906184022 96 119 1.0 10.0 0.00 0.00 0.00 49 1014.8
20260906183525 96 0 0.0 5.0 0.00 0.00 0.00 49 1015.1
20260906183045 96 256 0.0 5.0 0.00 0.00 0.00 48 1015.1
20260906182525 95 151 1.0 6.0 0.00 0.00 0.00 49 1015.2
20260906182023 95 96 1.0 6.0 0.00 0.00 0.00 50 1015.3
20260906181543 96 92 2.0 7.0 0.00 0.00 0.00 50 1015.3
20260906181024 95 268 2.0 7.0 0.00 0.00 0.00 51 1015.4
20260906180620 95 148 1.0 5.0 0.00 0.00 0.00 52 1015.5
20260906180101 94 0 0.0 5.0 0.00 0.00 0.00 52 1015.6
20260906175525 94 0 1.0 6.0 0.00 0.00 0.00 52 1015.8
20260906175027 93 135 0.0 6.0 0.00 0.00 0.00 52 1015.9
20260906174549 93 117 2.0 6.0 0.00 0.00 0.00 54 1016.0
20260906174023 93 0 0.0 6.0 0.00 0.00 0.00 56 1016.0
20260906173526 93 151 2.0 6.0 0.00 0.00 0.00 54 1016.2
20260906173048 93 0 1.0 5.0 0.00 0.00 0.00 55 1016.2
20260906172525 93 121 0.0 5.0 0.00 0.00 0.00 55 1016.4
20260906172027 93 0 1.0 5.0 0.00 0.00 0.00 56 1016.4
20260906171547 93 0 1.0 6.0 0.00 0.00 0.00 57 1016.4
20260906171024 92 0 0.0 6.0 0.00 0.00 0.00 59 1016.5
20260906170526 92 128 1.0 4.0 0.00 0.00 0.00 57 1016.6
20260906170043 92 0 1.0 4.0 0.00 0.00 0.00 58 1016.5
20260906165525 91 98 1.0 6.0 0.00 0.00 0.00 58 1016.7
20260906165027 91 0 1.0 7.0 0.00 0.00 0.00 58 1016.6
20260906164555 91 62 2.0 7.0 0.00 0.00 0.00 59 1016.8
20260906164026 91 167 2.0 6.0 0.00 0.00 0.00 58 1016.8
20260906163525 91 99 1.0 6.0 0.00 0.00 0.00 58 1017.0
20260906163107 91 175 2.0 6.0 0.00 0.00 0.00 58 1017.0
20260906162524 90 118 2.0 7.0 0.00 0.00 0.00 59 1017.0
20260906162025 90 125 1.0 7.0 0.00 0.00 0.00 60 1017.0
20260906161546 90 176 1.0 7.0 0.00 0.00 0.00 60 1017.0
20260906161024 90 84 1.0 4.0 0.00 0.00 0.00 60 1017.0
20260906160525 90 126 0.0 6.0 0.00 0.00 0.00 60 1017.0
20260906160049 89 126 2.0 6.0 0.00 0.00 0.00 60 1016.9
20260906155525 89 154 2.0 5.0 0.00 0.00 0.00 59 1016.9
20260906155024 90 165 1.0 5.0 0.00 0.00 0.00 59 1016.8
20260906154545 90 169 2.0 7.0 0.00 0.00 0.00 58 1016.7
20260906154026 90 0 1.0 7.0 0.00 0.00 0.00 58 1016.6
20260906153525 89 0 0.0 4.0 0.00 0.00 0.00 60 1016.5
20260906153051 89 46 1.0 4.0 0.00 0.00 0.00 60 1016.5
20260906152526 89 72 0.0 6.0 0.00 0.00 0.00 60 1016.4
20260906152025 89 0 0.0 6.0 0.00 0.00 0.00 60 1016.3
20260906151543 89 0 1.0 6.0 0.00 0.00 0.00 61 1016.2
20260906151025 88 71 1.0 6.0 0.00 0.00 0.00 61 1016.2
20260906150525 87 59 0.0 6.0 0.00 0.00 0.00 62 1016.3
20260906150043 87 113 1.0 5.0 0.00 0.00 0.00 63 1016.3
20260906145525 86 185 2.0 5.0 0.00 0.00 0.00 63 1016.3
20260906145025 86 0 1.0 6.0 0.00 0.00 0.00 63 1016.3
20260906144548 87 68 1.0 6.0 0.00 0.00 0.00 63 1016.4
20260906144024 86 94 1.0 5.0 0.00 0.00 0.00 63 1016.4
20260906143525 86 0 1.0 4.0 0.00 0.00 0.00 64 1016.5
20260906143051 86 57 0.0 4.0 0.00 0.00 0.00 64 1016.5
20260906142523 86 100 0.0 4.0 0.00 0.00 0.00 63 1016.5
20260906142024 86 0 0.0 5.0 0.00 0.00 0.00 65 1016.5
20260906141542 85 155 1.0 5.0 0.00 0.00 0.00 65 1016.4
20260906141025 85 175 0.0 5.0 0.00 0.00 0.00 65 1016.4
20260906140524 84 0 1.0 4.0 0.00 0.00 0.00 67 1016.4
20260906140049 84 0 0.0 3.0 0.00 0.00 0.00 68 1016.4
20260906135523 83 0 0.0 3.0 0.00 0.00 0.00 68 1016.3
20260906135024 83 0 0.0 2.0 0.00 0.00 0.00 69 1016.3
20260906134547 83 0 0.0 2.0 0.00 0.00 0.00 70 1016.2
20260906134024 82 0 0.0 3.0 0.00 0.00 0.00 72 1016.2
20260906133524 81 0 1.0 5.0 0.00 0.00 0.00 72 1016.3
20260906133046 81 57 0.0 5.0 0.00 0.00 0.00 72 1016.1
20260906132524 82 64 1.0 4.0 0.00 0.00 0.00 72 1016.1
20260906132024 81 0 0.0 2.0 0.00 0.00 0.00 73 1016.0
20260906131601 81 0 0.0 2.0 0.00 0.00 0.00 74 1015.9
20260906131024 80 0 0.0 2.0 0.00 0.00 0.00 76 1015.8
20260906130526 79 0 0.0 0.0 0.00 0.00 0.00 78 1015.7
20260906130046 78 0 0.0 0.0 0.00 0.00 0.00 79 1015.6
20260906125524 78 0 0.0 0.0 0.00 0.00 0.00 80 1015.7
20260906125024 77 0 0.0 0.0 0.00 0.00 0.00 80 1015.5
20260906124550 77 0 0.0 0.0 0.00 0.00 0.00 81 1015.4
20260906124024 77 0 0.0 1.0 0.00 0.00 0.00 80 1015.5
20260906123522 77 0 0.0 1.0 0.00 0.00 0.00 80 1015.3
20260906123051 77 0 0.0 1.0 0.00 0.00 0.00 81 1015.4
20260906122523 77 0 0.0 0.0 0.00 0.00 0.00 81 1015.4
20260906122025 77 0 0.0 0.0 0.00 0.00 0.00 81 1015.4
20260906121549 77 0 0.0 0.0 0.00 0.00 0.00 80 1015.4
20260906121026 77 0 0.0 0.0 0.00 0.00 0.00 80 1015.3
20260906120526 77 0 0.0 0.0 0.00 0.00 0.00 80 1015.3
20260906120057 77 0 0.0 0.0 0.00 0.00 0.00 81 1015.2
20260906115523 77 0 0.0 0.0 0.00 0.00 0.00 80 1015.1
20260906115026 77 0 0.0 0.0 0.00 0.00 0.00 81 1015.2
20260906114546 77 0 0.0 0.0 0.00 0.00 0.00 81 1015.1
20260906114025 77 0 0.0 0.0 0.00 0.00 0.00 81 1015.0
20260906113525 76 0 0.0 0.0 0.00 0.00 0.00 81 1015.1
20260906113045 76 0 0.0 0.0 0.00 0.00 0.00 81 1015.1
20260906112524 76 0 0.0 0.0 0.00 0.00 0.00 81 1015.1
20260906112024 76 0 0.0 0.0 0.00 0.00 0.00 81 1015.0
20260906111545 76 0 0.0 0.0 0.00 0.00 0.00 81 1015.1
20260906111023 76 0 0.0 0.0 0.00 0.00 0.00 81 1015.0
20260906110523 77 0 0.0 0.0 0.00 0.00 0.00 81 1014.9
20260906110048 77 0 0.0 0.0 0.00 0.00 0.00 80 1015.0
20260906105526 77 0 0.0 0.0 0.00 0.00 0.00 80 1014.9
20260906105024 77 0 0.0 0.0 0.00 0.00 0.00 80 1015.0
20260906104548 77 0 0.0 0.0 0.00 0.00 0.00 79 1015.0
20260906104027 77 0 0.0 0.0 0.00 0.00 0.00 79 1015.0
20260906103527 78 0 0.0 0.0 0.00 0.00 0.00 78 1015.0
20260906103046 78 0 0.0 0.0 0.00 0.00 0.00 78 1015.0
20260906102524 78 0 0.0 0.0 0.00 0.00 0.00 77 1014.9
20260906102024 78 0 0.0 0.0 0.00 0.00 0.00 77 1014.9
20260906101545 78 0 0.0 0.0 0.00 0.00 0.00 76 1014.9
20260906101024 79 0 0.0 0.0 0.00 0.00 0.00 76 1014.7
20260906100527 79 0 0.0 0.0 0.00 0.00 0.00 75 1014.8
20260906100050 79 0 0.0 0.0 0.00 0.00 0.00 74 1014.7
20260906095524 79 0 0.0 0.0 0.00 0.00 0.00 74 1014.7
20260906095023 79 0 0.0 0.0 0.00 0.00 0.00 73 1014.8
20260906094548 79 0 0.0 0.0 0.00 0.00 0.00 73 1014.7
20260906094025 79 0 0.0 0.0 0.00 0.00 0.00 73 1014.7
20260906093524 79 0 0.0 0.0 0.00 0.00 0.00 73 1014.7
20260906093053 79 0 0.0 0.0 0.00 0.00 0.00 73 1014.7
20260906092526 80 0 0.0 0.0 0.00 0.00 0.00 73 1014.5
20260906092024 80 0 0.0 0.0 0.00 0.00 0.00 73 1014.5
20260906091549 80 0 0.0 0.0 0.00 0.00 0.00 72 1014.5
20260906091027 80 0 0.0 0.0 0.00 0.00 0.00 72 1014.4
20260906090527 80 0 0.0 0.0 0.00 0.00 0.00 72 1014.5
20260906090048 80 0 0.0 0.0 0.00 0.00 0.00 72 1014.5
20260906085525 80 0 0.0 0.0 0.00 0.00 0.00 71 1014.4
20260906085025 80 0 0.0 0.0 0.00 0.00 0.00 72 1014.3
20260906084552 80 0 0.0 0.0 0.00 0.00 0.00 72 1014.3
20260906084026 80 0 0.0 0.0 0.00 0.00 0.00 72 1014.3
20260906083524 80 0 0.0 0.0 0.00 0.00 0.00 72 1014.3
20260906083042 80 0 0.0 0.0 0.00 0.00 0.00 72 1014.2
20260906082523 80 0 0.0 0.0 0.00 0.00 0.00 71 1014.3
20260906082023 80 0 0.0 0.0 0.00 0.00 0.00 72 1014.2
20260906081548 80 0 0.0 0.0 0.00 0.00 0.00 72 1014.2
20260906081025 80 0 0.0 0.0 0.00 0.00 0.00 72 1014.3
20260906080524 81 0 0.0 0.0 0.00 0.00 0.00 71 1014.2
20260906080054 81 0 0.0 0.0 0.00 0.00 0.00 71 1014.2
20260906075525 81 0 0.0 0.0 0.00 0.00 0.00 71 1014.2
20260906075026 81 0 0.0 0.0 0.00 0.00 0.00 70 1014.2
20260906074548 82 0 0.0 0.0 0.00 0.00 0.00 70 1014.3
20260906074024 82 0 0.0 0.0 0.00 0.00 0.00 70 1014.3
20260906073520 82 0 0.0 0.0 0.00 0.00 0.00 69 1014.2
20260906073040 82 0 0.0 0.0 0.00 0.00 0.00 69 1014.2
20260906072523 82 0 0.0 0.0 0.00 0.00 0.00 69 1014.2
20260906072026 82 0 0.0 0.0 0.00 0.00 0.00 69 1014.3
20260906071546 82 0 0.0 0.0 0.00 0.00 0.00 69 1014.2
20260906071025 82 0 0.0 0.0 0.00 0.00 0.00 69 1014.3
20260906070522 82 0 0.0 1.0 0.00 0.00 0.00 69 1014.3
20260906070042 82 0 0.0 1.0 0.00 0.00 0.00 69 1014.4
20260906065524 82 0 0.0 1.0 0.00 0.00 0.00 69 1014.4
20260906065024 82 0 0.0 0.0 0.00 0.00 0.00 69 1014.5
20260906064539 83 0 0.0 0.0 0.00 0.00 0.00 68 1014.5
20260906064023 83 0 0.0 0.0 0.00 0.00 0.00 68 1014.5
20260906063522 83 0 0.0 0.0 0.00 0.00 0.00 68 1014.5
20260906063049 83 0 0.0 1.0 0.00 0.00 0.00 68 1014.5
20260906062525 83 0 0.0 1.0 0.00 0.00 0.00 67 1014.6
20260906062024 83 0 0.0 0.0 0.00 0.00 0.00 67 1014.6
20260906061547 84 0 0.0 0.0 0.00 0.00 0.00 67 1014.7
20260906061025 84 0 0.0 1.0 0.00 0.00 0.00 66 1014.6
20260906060524 84 0 0.0 2.0 0.00 0.00 0.00 66 1014.6
20260906060054 84 0 0.0 2.0 0.00 0.00 0.00 66 1014.7
20260906055524 84 101 0.0 1.0 0.00 0.00 0.00 66 1014.7
20260906055023 84 0 0.0 1.0 0.00 0.00 0.00 65 1014.8
20260906054549 85 0 0.0 1.0 0.00 0.00 0.00 65 1014.8
20260906054024 85 0 0.0 1.0 0.00 0.00 0.00 65 1014.8
20260906053522 85 0 0.0 0.0 0.00 0.00 0.00 65 1014.9
20260906053045 85 0 0.0 1.0 0.00 0.00 0.00 65 1014.8
20260906052524 85 0 0.0 1.0 0.00 0.00 0.00 65 1014.9
20260906052022 85 0 0.0 2.0 0.00 0.00 0.00 65 1014.8
20260906051545 85 0 0.0 2.0 0.00 0.00 0.00 65 1014.9
20260906051025 85 0 0.0 2.0 0.00 0.00 0.00 65 1014.8
20260906050524 85 0 0.0 2.0 0.00 0.00 0.00 65 1014.8
20260906050046 85 0 0.0 1.0 0.00 0.00 0.00 66 1014.8
20260906045523 85 0 0.0 0.0 0.00 0.00 0.00 65 1014.7
20260906045023 85 0 0.0 0.0 0.00 0.00 0.00 65 1014.7
20260906044549 85 0 0.0 0.0 0.00 0.00 0.00 65 1014.7
20260906044027 85 0 0.0 0.0 0.00 0.00 0.00 64 1014.8
20260906043523 86 0 0.0 0.0 0.00 0.00 0.00 64 1014.7
20260906043043 86 0 0.0 1.0 0.00 0.00 0.00 64 1014.7
20260906042523 86 0 0.0 1.0 0.00 0.00 0.00 64 1014.7
20260906042025 86 0 0.0 2.0 0.00 0.00 0.00 64 1014.8
20260906041547 86 0 0.0 2.0 0.00 0.00 0.00 63 1014.6
20260906041025 86 148 0.0 2.0 0.00 0.00 0.00 63 1014.6
20260906040523 86 0 0.0 2.0 0.00 0.00 0.00 63 1014.4
20260906040051 87 0 0.0 2.0 0.00 0.00 0.00 63 1014.4
20260906035524 87 0 0.0 2.0 0.00 0.00 0.00 63 1014.4
20260906035025 87 122 0.0 3.0 0.00 0.00 0.00 62 1014.4
20260906034546 87 0 0.0 3.0 0.00 0.00 0.00 62 1014.3
20260906034024 87 0 0.0 2.0 0.00 0.00 0.00 62 1014.3
20260906033524 88 0 0.0 2.0 0.00 0.00 0.00 61 1014.2
20260906033041 88 86 0.0 3.0 0.00 0.00 0.00 60 1014.1
20260906032524 88 0 0.0 3.0 0.00 0.00 0.00 60 1014.1
20260906032024 88 0 0.0 3.0 0.00 0.00 0.00 60 1014.2
20260906031541 88 80 0.0 3.0 0.00 0.00 0.00 59 1014.1
20260906031023 88 0 0.0 4.0 0.00 0.00 0.00 59 1014.0
20260906030523 88 0 0.0 4.0 0.00 0.00 0.00 59 1014.0
20260906030052 89 0 0.0 4.0 0.00 0.00 0.00 59 1014.0
20260906025523 89 0 0.0 4.0 0.00 0.00 0.00 59 1014.0
20260906025025 89 0 0.0 4.0 0.00 0.00 0.00 58 1013.9
20260906024544 89 90 0.0 3.0 0.00 0.00 0.00 58 1013.8
20260906024025 89 0 0.0 3.0 0.00 0.00 0.00 58 1013.7
20260906023525 89 0 0.0 6.0 0.00 0.00 0.00 58 1013.6
20260906023048 89 0 0.0 6.0 0.00 0.00 0.00 57 1013.6
20260906022525 89 0 0.0 4.0 0.00 0.00 0.00 58 1013.5
20260906022028 89 0 0.0 4.0 0.00 0.00 0.00 57 1013.4
20260906021545 90 0 0.0 3.0 0.00 0.00 0.00 57 1013.2
20260906021023 90 0 0.0 4.0 0.00 0.00 0.00 57 1013.1
20260906020525 90 67 0.0 4.0 0.00 0.00 0.00 56 1013.2
20260906020053 90 0 0.0 1.0 0.00 0.00 0.00 56 1013.1
20260906015524 90 0 0.0 5.0 0.00 0.00 0.00 56 1013.0
20260906015024 90 0 0.0 5.0 0.00 0.00 0.00 56 1013.0
20260906014546 90 0 1.0 5.0 0.00 0.00 0.00 55 1012.9
20260906014027 90 51 0.0 3.0 0.00 0.00 0.00 55 1012.9
20260906013524 90 28 0.0 2.0 0.00 0.00 0.00 54 1012.9
20260906013047 90 0 0.0 0.0 0.00 0.00 0.00 54 1012.8
20260906012527 90 0 0.0 0.0 0.00 0.00 0.00 53 1012.7
20260906012029 90 0 0.0 0.0 0.00 0.00 0.00 53 1012.7
20260906011555 91 0 0.0 0.0 0.00 0.00 0.00 54 1012.6
20260906011023 91 0 0.0 0.0 0.00 0.00 0.00 52 1012.6
20260906010525 91 0 0.0 0.0 0.00 0.00 0.00 52 1012.5
20260906010043 92 0 0.0 0.0 0.00 0.00 0.00 51 1012.4
20260906005525 92 0 0.0 0.0 0.00 0.00 0.00 51 1012.4
20260906005027 93 0 0.0 0.0 0.00 0.00 0.00 50 1012.5
20260906004552 93 0 0.0 0.0 0.00 0.00 0.00 50 1012.5
20260906004027 93 0 0.0 0.0 0.00 0.00 0.00 49 1012.5
20260906003525 94 0 0.0 0.0 0.00 0.00 0.00 48 1012.5
20260906003049 94 0 0.0 0.0 0.00 0.00 0.00 47 1012.5
20260906002524 95 0 0.0 0.0 0.00 0.00 0.00 47 1012.5
20260906002025 95 0 0.0 0.0 0.00 0.00 0.00 46 1012.5
20260906001543 95 0 0.0 0.0 0.00 0.00 0.00 46 1012.4
20260906001027 95 0 0.0 0.0 0.00 0.00 0.00 45 1012.3
20260906000530 96 0 0.0 0.0 0.00 0.00 0.00 44 1012.5
20260906000042 96 0 0.0 0.0 0.00 0.00 0.00 44 1012.4
20260905235524 96 0 0.0 1.0 0.00 0.00 0.00 43 1012.4
20260905235026 96 0 0.0 1.0 0.00 0.00 0.00 42 1012.4
20260905234541 97 0 0.0 0.0 0.00 0.00 0.00 42 1012.4
20260905234028 97 0 0.0 0.0 0.00 0.00 0.00 42 1012.4
20260905233524 97 0 0.0 1.0 0.00 0.00 0.00 41 1012.5
20260905233103 97 0 0.0 3.0 0.00 0.00 0.00 41 1012.5
20260905232526 97 0 0.0 7.0 0.00 0.00 0.00 40 1012.6
20260905232025 97 133 1.0 8.0 0.00 0.00 0.00 40 1012.5
20260905231553 98 163 1.0 8.0 0.00 0.00 0.00 40 1012.4
20260905231025 98 96 2.0 6.0 0.00 0.00 0.00 39 1012.4
20260905230531 98 110 0.0 6.0 0.00 0.00 0.00 39 1012.3
20260905230051 99 141 2.0 6.0 0.00 0.00 0.00 38 1012.3
20260905225522 99 0 1.0 6.0 0.00 0.00 0.00 38 1012.2
20260905225023 99 0 2.0 8.0 0.00 0.00 0.00 38 1012.2
20260905224605 99 175 3.0 8.0 0.00 0.00 0.00 37 1012.2
20260905224025 99 155 3.0 9.0 0.00 0.00 0.00 38 1012.3
20260905223525 99 162 3.0 9.0 0.00 0.00 0.00 38 1012.3
20260905223041 99 109 3.0 8.0 0.00 0.00 0.00 38 1012.4
20260905222529 99 0 2.0 6.0 0.00 0.00 0.00 38 1012.5
20260905222026 99 175 0.0 7.0 0.00 0.00 0.00 38 1012.5
20260905221546 99 120 2.0 7.0 0.00 0.00 0.00 37 1012.5
20260905221028 100 166 1.0 6.0 0.00 0.00 0.00 36 1012.7
20260905220525 100 89 1.0 8.0 0.00 0.00 0.00 37 1012.7
20260905220048 99 172 2.0 8.0 0.00 0.00 0.00 36 1012.7
20260905215523 100 96 1.0 9.0 0.00 0.00 0.00 36 1012.7
20260905215024 99 108 1.0 9.0 0.00 0.00 0.00 37 1012.8
20260905214549 100 85 3.0 9.0 0.00 0.00 0.00 36 1012.8
20260905214023 99 139 2.0 7.0 0.00 0.00 0.00 37 1012.8
20260905213526 100 163 3.0 7.0 0.00 0.00 0.00 35 1012.9
20260905213048 100 155 1.0 6.0 0.00 0.00 0.00 36 1012.9
20260905212525 100 0 0.0 6.0 0.00 0.00 0.00 36 1012.9
20260905212029 99 0 2.0 6.0 0.00 0.00 0.00 37 1013.0
20260905211543 101 157 1.0 7.0 0.00 0.00 0.00 35 1013.0
20260905211025 100 0 2.0 7.0 0.00 0.00 0.00 37 1013.1
20260905210529 100 0 1.0 6.0 0.00 0.00 0.00 36 1013.1
20260905210042 101 175 2.0 7.0 0.00 0.00 0.00 36 1013.1